Regional Weather Roundup
Issued by NWS

Home | Current Version | Previous Version | Graphics & Text | Print | Product List | Glossary On
Versions: 1 2 3 4 5 6 7 8 9 10 11 12 13 14 15 16 17 18 19 20 21 22 23 24 25 26 27 28 29 30 31 32 33 34 35 36 37 38 39 40 41 42 43 44 45 46 47 48 49 50
000
ASUS45 KBOI 100610
RWRID
WEATHER ROUNDUP FOR IDAHO
NATIONAL WEATHER SERVICE BOISE ID
1200 AM MDT THU JUL 10 2014

NOTE: "FAIR" INDICATES FEW OR NO CLOUDS BELOW 12000 FEET
WITH NO SIGNIFICANT WEATHER AND/OR OBSTRUCTIONS TO VISIBILITY

IDZ012-014-100700-
SOUTHWEST IDAHO


CITY           SKY/WX    TMP DP  RH WIND       PRES   REMARKS
BOISE          CLEAR     74  53  48 S3        29.90R
CALDWELL       CLEAR     70  52  52 SE3       29.90S
MOUNTAIN HOME  PTCLDY    74  47  38 NW8       29.91S
$$

IDZ016-017-100700-
SOUTHCENTRAL IDAHO


CITY           SKY/WX    TMP DP  RH WIND       PRES   REMARKS
BURLEY         CLOUDY    75  49  39 SW10G21   29.96
JEROME         MOCLDY    76  50  40 SW13      29.97S
TWIN FALLS     CLOUDY    77  47  34 SW12      29.98S
$$

IDZ019>023-100700-
SOUTHEAST IDAHO


CITY           SKY/WX    TMP DP  RH WIND       PRES   REMARKS
IDAHO FALLS    CLOUDY    66  55  67 CALM      30.01R
POCATELLO      LGT RAIN  69  59  70 S12       30.01R
REXBURG        CLOUDY    70  52  52 CALM      30.01R
$$

IDZ006-010-011-018-031-032-100700-
CENTRAL IDAHO MOUNTAINS


CITY           SKY/WX    TMP DP  RH WIND       PRES   REMARKS
MCCALL         PTCLDY    56  52  86 CALM      30.04F
HAILEY         CLOUDY    72  46  40 NW8       30.05R
STANLEY          N/A     56  46  69 CALM      30.16S
SALMON         MOCLDY    64  55  72 CALM      30.02S
CHALLIS        CLOUDY    68  48  48 S3        30.06S
$$

IDZ002-004-006-007-026-100700-
NORTHERN IDAHO


CITY           SKY/WX    TMP DP  RH WIND       PRES   REMARKS
LEWISTON       CLEAR     81  38  21 SE6       29.77R
LOWELL           N/A     66  62  87 N3        29.83R
COEUR D`ALENE  CLEAR     70  54  56 SE5       29.79S
MULLAN PASS    CLEAR     65  42  43 W7        30.05S
$$



USA.gov is the U.S. government's official web portal to all federal, state and local government web resources and services.